N0JY-4 Weather Reports


Display with metric or nautical units.
time (UTC)temp
F
wind
direction
speed
MPH
gust
MPH
rain 1hr
in
rain 24hr
in
rain mn
in
humidity
%
barometer
mb
20170622183035 86 203 3.0 0.0 0.00 0.00 0.00 59 1005.8
20170622182308 86 307 5.0 5.0 0.00 0.00 0.00 60 1005.8
20170622181539 86 335 5.0 6.0 0.00 0.00 0.00 61 1005.9
20170622180810 87 295 5.0 5.0 0.00 0.00 0.00 62 1006.0
20170622180037 86 273 1.0 0.0 0.00 0.00 0.00 63 1006.0
20170622175308 86 215 3.0 2.0 0.00 0.00 0.00 63 1006.2
20170622174536 85 297 4.0 6.0 0.00 0.00 0.00 66 1006.2
20170622173810 85 221 4.0 3.0 0.00 0.00 0.00 64 1006.4
20170622173043 85 232 4.0 4.0 0.00 0.00 0.00 67 1006.5
20170622172317 85 269 6.0 4.0 0.00 0.00 0.00 65 1006.5
20170622171540 85 301 3.0 2.0 0.00 0.00 0.00 65 1006.6
20170622170812 85 267 2.0 5.0 0.00 0.00 0.00 63 1006.6
20170622170044 84 255 1.0 1.0 0.00 0.00 0.00 68 1006.6
20170622165316 83 332 4.0 4.0 0.00 0.00 0.00 65 1006.6
20170622164541 84 321 3.0 7.0 0.00 0.00 0.00 69 1006.6
20170622163815 83 31 1.0 2.0 0.00 0.00 0.00 69 1006.7
20170622163048 83 44 2.0 3.0 0.00 0.00 0.00 69 1006.7
20170622162321 83 319 5.0 5.0 0.00 0.00 0.00 69 1006.7
20170622161550 83 91 1.0 4.0 0.00 0.00 0.00 69 1006.6
20170622160822 82 39 4.0 2.0 0.00 0.00 0.00 69 1006.7
20170622160055 82 49 3.0 0.0 0.00 0.00 0.00 70 1006.5
20170622155329 82 6 3.0 2.0 0.00 0.00 0.00 71 1006.4
20170622154558 82 39 3.0 4.0 0.00 0.00 0.00 72 1006.4
20170622153830 82 82 1.0 4.0 0.00 0.00 0.00 71 1006.2
20170622153104 82 212 3.0 4.0 0.00 0.00 0.00 71 1006.2
20170622152332 82 222 1.0 2.0 0.00 0.00 0.00 72 1006.1
20170622151557 82 41 2.0 1.0 0.00 0.00 0.00 72 1006.0
20170622150831 81 335 3.0 3.0 0.00 0.00 0.00 72 1006.2
20170622150102 81 32 4.0 4.0 0.00 0.00 0.00 73 1006.4
20170622145335 81 38 2.0 0.0 0.00 0.00 0.00 75 1006.5
20170622144604 81 312 2.0 3.0 0.00 0.00 0.00 75 1006.5
20170622143834 81 270 3.0 1.0 0.00 0.00 0.00 72 1006.7
20170622143104 81 333 4.0 4.0 0.00 0.00 0.00 71 1006.5
20170622142336 81 30 4.0 4.0 0.00 0.00 0.00 73 1006.6
20170622141601 80 23 8.0 6.0 0.00 0.00 0.00 74 1006.6
20170622140836 79 48 4.0 3.0 0.00 0.00 0.00 76 1006.6
20170622140109 79 31 6.0 4.0 0.00 0.00 0.00 76 1006.7
20170622135343 79 10 4.0 4.0 0.00 0.00 0.00 77 1006.8
20170622134609 79 31 7.0 5.0 0.00 0.00 0.00 76 1006.9
20170622133836 79 21 6.0 3.0 0.00 0.00 0.00 76 1006.8
20170622133109 79 35 5.0 5.0 0.00 0.00 0.00 77 1006.6
20170622132343 78 326 2.0 5.0 0.00 0.00 0.00 79 1006.6
20170622131610 77 10 4.0 6.0 0.00 0.00 0.00 79 1006.5
20170622130844 77 11 6.0 6.0 0.00 0.00 0.00 78 1006.5
20170622130117 77 41 4.0 5.0 0.00 0.00 0.00 80 1006.5
20170622125350 77 35 5.0 6.0 0.00 0.00 0.00 80 1006.5
20170622124616 76 30 5.0 7.0 0.00 0.00 0.00 81 1006.5
20170622123850 76 18 6.0 4.0 0.00 0.00 0.00 81 1006.5
20170622123123 76 20 4.0 7.0 0.00 0.00 0.00 82 1006.2
20170622122356 75 31 3.0 4.0 0.00 0.00 0.00 83 1006.1
20170622121626 74 332 4.0 4.0 0.00 0.00 0.00 84 1006.1
20170622120859 74 8 3.0 6.0 0.00 0.00 0.00 84 1005.8
20170622120132 74 15 4.0 4.0 0.00 0.00 0.00 84 1005.7
20170622115405 74 1 3.0 4.0 0.00 0.00 0.00 85 1005.8
20170622114632 73 24 4.0 4.0 0.00 0.00 0.00 85 1005.8
20170622113906 73 356 4.0 2.0 0.00 0.00 0.00 85 1005.7
20170622113139 73 27 5.0 5.0 0.00 0.00 0.00 85 1005.8
20170622112409 73 333 5.0 4.0 0.00 0.00 0.00 85 1005.9
20170622111638 74 42 4.0 4.0 0.00 0.00 0.00 84 1006.0
20170622110909 74 332 4.0 5.0 0.00 0.00 0.00 84 1006.2
20170622110137 74 328 3.0 3.0 0.00 0.00 0.00 83 1006.1
20170622105409 74 316 5.0 3.0 0.00 0.00 0.00 84 1006.1
20170622104632 74 318 4.0 5.0 0.00 0.00 0.00 83 1006.0
20170622103905 74 314 4.0 4.0 0.00 0.00 0.00 83 1005.9
20170622103134 74 350 3.0 5.0 0.00 0.00 0.00 83 1005.9
20170622102408 74 340 4.0 4.0 0.00 0.00 0.00 82 1005.9
20170622101637 75 17 3.0 3.0 0.00 0.00 0.00 82 1005.8
20170622100909 75 356 5.0 3.0 0.00 0.00 0.00 82 1005.8
20170622100140 75 41 3.0 4.0 0.00 0.00 0.00 81 1006.1
20170622095414 75 0 5.0 4.0 0.00 0.00 0.00 81 1006.2
20170622094643 74 346 6.0 5.0 0.00 0.00 0.00 81 1006.5
20170622093914 74 357 4.0 5.0 0.00 0.00 0.00 81 1006.6
20170622093145 74 353 5.0 5.0 0.00 0.00 0.00 81 1006.6
20170622092419 74 356 3.0 3.0 0.00 0.00 0.00 81 1006.7
20170622091649 74 3 3.0 4.0 0.00 0.00 0.00 81 1006.7
20170622090920 74 340 4.0 5.0 0.00 0.00 0.00 81 1006.8
20170622090153 74 338 4.0 6.0 0.00 0.00 0.00 81 1007.0
20170622085427 74 4 3.0 3.0 0.00 0.00 0.00 81 1007.0
20170622084655 73 346 4.0 3.0 0.00 0.00 0.00 81 1007.0
20170622083929 73 346 5.0 6.0 0.00 0.00 0.00 81 1006.9
20170622083158 74 356 5.0 3.0 0.00 0.00 0.00 80 1006.9
20170622082433 74 352 3.0 3.0 0.00 0.00 0.00 80 1006.9
20170622081701 74 335 4.0 3.0 0.00 0.00 0.00 80 1006.9
20170622080934 74 359 2.0 1.0 0.00 0.00 0.00 79 1007.0
20170622080207 74 340 4.0 3.0 0.00 0.00 0.00 79 1007.2
20170622075441 74 350 3.0 2.0 0.00 0.00 0.00 79 1007.3
20170622074710 74 346 4.0 4.0 0.00 0.00 0.00 78 1007.3
20170622073938 73 336 4.0 4.0 0.00 0.00 0.00 78 1007.5
20170622073213 74 323 2.0 2.0 0.00 0.00 0.00 77 1007.5
20170622072444 74 356 0.0 0.0 0.00 0.00 0.00 75 1007.4
20170622071713 75 352 2.0 1.0 0.00 0.00 0.00 75 1007.6
20170622070946 75 3 0.0 0.0 0.00 0.00 0.00 74 1007.6
20170622070219 75 7 2.0 2.0 0.00 0.00 0.00 73 1007.8
20170622065453 76 333 4.0 4.0 0.00 0.00 0.00 72 1008.1
20170622064722 75 339 4.0 4.0 0.00 0.00 0.00 72 1008.2
20170622063952 75 338 4.0 5.0 0.00 0.00 0.00 72 1008.4
20170622063225 74 330 3.0 4.0 0.00 0.00 0.00 74 1008.3
20170622062459 74 7 0.0 0.0 0.00 0.00 0.00 74 1008.3
20170622061728 74 7 2.0 0.0 0.00 0.00 0.00 74 1008.4
20170622060959 74 3 0.0 0.0 0.00 0.00 0.00 73 1008.6
20170622060233 75 3 0.0 0.0 0.00 0.00 0.00 72 1008.6
20170622055506 75 3 0.0 0.0 0.00 0.00 0.00 71 1008.6
20170622054733 77 3 0.0 0.0 0.00 0.00 0.00 68 1008.6
20170622054005 77 0 3.0 2.0 0.00 0.00 0.00 68 1008.6
20170622053240 77 304 3.0 3.0 0.00 0.00 0.00 67 1008.5
20170622052512 76 332 4.0 4.0 0.00 0.00 0.00 66 1008.5
20170622051740 76 321 4.0 6.0 0.00 0.00 0.00 67 1008.6
20170622051012 76 338 3.0 3.0 0.00 0.00 0.00 68 1008.6
20170622050247 76 354 2.0 3.0 0.00 0.00 0.00 67 1008.6
20170622045520 76 8 2.0 3.0 0.00 0.00 0.00 67 1008.5
20170622044749 76 352 2.0 2.0 0.00 0.00 0.00 67 1008.5
20170622044023 77 8 0.0 1.0 0.00 0.00 0.00 66 1008.4
20170622043256 77 1 2.0 3.0 0.00 0.00 0.00 66 1008.4
20170622042527 77 0 3.0 3.0 0.00 0.00 0.00 65 1008.3
20170622041754 78 24 0.0 0.0 0.00 0.00 0.00 63 1008.2
20170622041028 78 1 2.0 2.0 0.00 0.00 0.00 63 1008.3
20170622040300 78 336 0.0 2.0 0.00 0.00 0.00 63 1008.2
20170622035534 77 7 0.0 0.0 0.00 0.00 0.00 63 1008.1
20170622034804 78 7 0.0 0.0 0.00 0.00 0.00 62 1007.9
20170622034036 78 7 0.0 0.0 0.00 0.00 0.00 61 1007.9
20170622033310 79 14 1.0 2.0 0.00 0.00 0.00 59 1007.9
20170622032542 79 27 2.0 3.0 0.00 0.00 0.00 58 1007.7
20170622031812 80 72 2.0 3.0 0.00 0.00 0.00 57 1007.6
20170622031045 80 23 1.0 0.0 0.00 0.00 0.00 56 1007.4
20170622025552 80 27 3.0 4.0 0.00 0.00 0.00 55 1007.5
20170622024821 80 69 4.0 5.0 0.00 0.00 0.00 55 1007.5
20170622024053 80 44 3.0 3.0 0.00 0.00 0.00 54 1007.6
20170622023327 80 66 4.0 5.0 0.00 0.00 0.00 54 1007.7
20170622022556 80 32 5.0 4.0 0.00 0.00 0.00 54 1007.7
20170622021827 81 73 4.0 3.0 0.00 0.00 0.00 53 1007.6
20170622021100 81 48 3.0 4.0 0.00 0.00 0.00 52 1007.6
20170622020332 82 39 2.0 2.0 0.00 0.00 0.00 51 1007.5
20170622015606 82 35 5.0 4.0 0.00 0.00 0.00 49 1007.6
20170622014834 82 42 4.0 2.0 0.00 0.00 0.00 48 1007.8
20170622014107 83 24 2.0 3.0 0.00 0.00 0.00 47 1007.9
20170622013341 84 37 5.0 5.0 0.00 0.00 0.00 46 1007.9
20170622012615 84 59 4.0 5.0 0.00 0.00 0.00 45 1007.9
20170622011844 84 60 4.0 6.0 0.00 0.00 0.00 44 1008.0
20170622011118 85 39 5.0 2.0 0.00 0.00 0.00 43 1008.0
20170622010350 85 28 5.0 3.0 0.00 0.00 0.00 42 1008.2
20170622005624 85 56 6.0 7.0 0.00 0.00 0.00 42 1008.2
20170622004846 85 32 6.0 7.0 0.00 0.00 0.00 42 1008.1
20170622004120 86 82 7.0 5.0 0.00 0.00 0.00 42 1008.1
20170622003534 86 45 8.0 5.0 0.00 0.00 0.00 44 1008.2
20170622003355 86 97 5.0 8.0 0.00 0.00 0.00 43 1008.2
20170622002626 86 82 8.0 7.0 0.00 0.00 0.00 44 1008.2
20170622001855 86 45 8.0 5.0 0.00 0.00 0.00 44 1008.2
20170622001128 87 53 9.0 7.0 0.00 0.00 0.00 43 1008.1
20170622000401 88 108 5.0 5.0 0.00 0.00 0.00 42 1008.1
20170621235633 89 70 8.0 9.0 0.00 0.00 0.00 38 1008.1
20170621234858 90 77 4.0 2.0 0.00 0.00 0.00 36 1008.2
20170621234132 90 49 5.0 5.0 0.00 0.00 0.00 37 1008.2
20170621233402 91 51 6.0 8.0 0.00 0.00 0.00 37 1008.3
20170621232635 91 8 6.0 2.0 0.00 0.00 0.00 37 1008.4
20170621231902 91 346 6.0 4.0 0.00 0.00 0.00 38 1008.5
20170621231137 91 80 9.0 9.0 0.00 0.00 0.00 37 1008.6
20170621230409 91 58 8.0 8.0 0.00 0.00 0.00 37 1008.6
20170621225643 90 59 8.0 8.0 0.00 0.00 0.00 36 1008.7
20170621224913 90 87 9.0 10.0 0.00 0.00 0.00 38 1008.7
20170621224148 90 108 9.0 9.0 0.00 0.00 0.00 35 1008.9
20170621223421 91 127 10.0 6.0 0.00 0.00 0.00 35 1008.8
20170621222654 92 75 7.0 8.0 0.00 0.00 0.00 35 1008.9
20170621221152 91 86 8.0 8.0 0.00 0.00 0.00 34 1009.0
20170621220425 91 107 10.0 8.0 0.00 0.00 0.00 35 1009.0
20170621215655 91 82 5.0 5.0 0.00 0.00 0.00 38 1009.1
20170621214925 92 103 9.0 6.0 0.00 0.00 0.00 34 1009.3
20170621214159 93 72 9.0 6.0 0.00 0.00 0.00 33 1009.3
20170621213432 93 55 9.0 9.0 0.00 0.00 0.00 32 1009.3
20170621212706 93 37 8.0 9.0 0.00 0.00 0.00 34 1009.3
20170621211935 93 143 4.0 5.0 0.00 0.00 0.00 29 1009.5
20170621211208 93 75 7.0 9.0 0.00 0.00 0.00 30 1009.5
20170621210443 94 63 10.0 11.0 0.00 0.00 0.00 29 1009.6
20170621205715 93 18 8.0 6.0 0.00 0.00 0.00 28 1009.8
20170621204942 92 66 9.0 8.0 0.00 0.00 0.00 28 1010.0
20170621204216 93 91 8.0 6.0 0.00 0.00 0.00 28 1009.9
20170621203449 93 59 7.0 7.0 0.00 0.00 0.00 29 1010.1
20170621202721 93 28 4.0 1.0 0.00 0.00 0.00 29 1010.2
20170621201950 93 56 9.0 9.0 0.00 0.00 0.00 29 1010.2
20170621201224 94 63 6.0 6.0 0.00 0.00 0.00 31 1010.2
20170621200457 93 75 9.0 5.0 0.00 0.00 0.00 28 1010.3
20170621195729 94 63 9.0 3.0 0.00 0.00 0.00 26 1010.5
20170621194230 94 83 5.0 7.0 0.00 0.00 0.00 28 1010.6
20170621193504 93 42 6.0 6.0 0.00 0.00 0.00 25 1010.7
20170621192737 94 51 7.0 6.0 0.00 0.00 0.00 29 1010.8
20170621192008 93 63 3.0 6.0 0.00 0.00 0.00 26 1011.0
20170621191241 93 41 8.0 7.0 0.00 0.00 0.00 26 1011.1
20170621190514 93 115 6.0 8.0 0.00 0.00 0.00 25 1011.1
20170621185748 93 10 6.0 2.0 0.00 0.00 0.00 28 1011.2
20170621185014 93 105 3.0 1.0 0.00 0.00 0.00 28 1011.3
20170621184248 92 38 3.0 5.0 0.00 0.00 0.00 32 1011.5